Location: Bédeille
(43.0872°N, 1.1041°E)
Time: 03:11:12
(UTC+00:00)

CZ-4B R/B - Pass Details

Date: 03 February 2023
Orbit: 809 x 881 km, 99.0° (Epoch: 27 March)

Event Time Altitude Azimuth Distance (km) Brightness Sun altitude
Rises 17:48:34 0° 131° (SE) 3,335 6.0 -7.5°
Reaches altitude 10° 17:51:12 10° 119° (ESE) 2,416 5.2 -7.9°
Maximum altitude 17:55:37 27° 63° (ENE) 1,542 4.0 -8.7°
Drops below altitude 10° 18:00:07 10° 8° (N) 2,465 5.4 -9.5°
Sets 18:02:49 0° 356° (N) 3,417 6.3 -10.0°
